Regional Weather Roundup
Issued by NWS

Home | Current Version | Previous Version | Text Only | Print | Product List | Glossary Off
Versions: 1 2 3 4 5 6 7 8 9 10 11 12 13 14 15 16 17 18 19 20 21 22 23 24 25 26 27 28 29 30 31 32 33 34 35 36 37 38 39 40 41 42 43 44 45 46 47 48 49 50

000
ASUS43 KMKX 071721
RWRWI

WISCONSIN REGIONAL WEATHER ROUNDUP
NATIONAL WEATHER SERVICE MILWAUKEE/SULLIVAN WI
1200 PM CDT TUE JUL 07 2015

NOTE: "FAIR" INDICATES FEW OR NO CLOUDS BELOW 12,000 FEET WITH NO
SIGNIFICANT WEATHER AND/OR OBSTRUCTIONS TO VISIBILITY.

WIZ001-002-006>008-014>016-023>028-071800-
NORTHWEST WISCONSIN

CITY           SKY/WX    TMP DP  RH WIND       PRES   REMARKS
SUPERIOR ARPT  SUNNY     66  49  53 CALM      30.15F
ASHLAND        SUNNY     65  49  56 NE10      30.15R
HAYWARD        PTSUNNY   64  46  52 NE12      30.15S
SIREN          MOSUNNY   65  43  44 N9        30.16S
CUMBERLAND     MOSUNNY   61  46  59 N12       30.16S
RICE LAKE      PTSUNNY   62  47  57 N10       30.16F
CHETEK         PTSUNNY   64  48  56 N9G17     30.15S
LADYSMITH      MOSUNNY   65  48  54 N8        30.15S
EAU CLAIRE     PTSUNNY   64  45  49 NE10      30.13S
MENOMONIE      MOSUNNY   66  45  45 N10G17    30.14S
NEW RICHMOND   PTSUNNY   63  46  53 N7        30.16S
OSCEOLA        PTSUNNY   65  48  55 NE8       30.19S
$$

WIZ003>005-009-010-017-018-071800-
NORTH CENTRAL WISCONSIN

CITY           SKY/WX    TMP DP  RH WIND       PRES   REMARKS
MANITOWISH WTR CLOUDY    60  46  59 N8G16     30.12S
ARBOR VITAE    SUNNY     62  46  55 N15       30.11S
WOODRUFF       SUNNY     62  46  55 N15       30.11S
RHINELANDER    MOSUNNY   61  44  53 N9        30.11S
EAGLE RIVER    PTSUNNY   61  43  51 NE12G18   30.10S
LAND O LAKES   MOSUNNY   61  44  52 N13       30.11S
PHILLIPS       PTSUNNY   62  47  58 N10G17    30.11S
TOMAHAWK       MOSUNNY   62  46  56 N7        30.11S
MEDFORD        CLOUDY    60  47  60 N7        30.12S
MERRILL        PTSUNNY   62  47  57 N13G20    30.11R
$$

WIZ029-030-035-036-043>047-071800-
CENTRAL WISCONSIN

CITY           SKY/WX    TMP DP  RH WIND       PRES   REMARKS
WAUSAU         PTSUNNY   64  45  49 NE9G20    30.08F
MOSINEE        PTSUNNY   61  46  59 NW12G18   30.11S
MARSHFIELD     CLOUDY    61  44  53 N10G20    30.11S
STEVENS POINT  CLOUDY    61  44  53 N12       30.10S
WAUPACA        PTSUNNY   67  45  44 N10       30.08S
WAUTOMA        MOSUNNY   65  46  50 N13       30.08R
WISC RAPIDS    CLOUDY    63  44  50 N15       30.11R
CAMP DOUGLAS   CLOUDY    63  52  67 NW9       30.10R
$$

WIZ011>013-019>022-031-037>040-048>050-071800-
NORTHEAST WISCONSIN

CITY           SKY/WX    TMP DP  RH WIND       PRES   REMARKS
ANTIGO         CLOUDY    61  47  60 N14G20    30.09S
SHAWANO        MOSUNNY   66  46  48 N6        30.07S
OCONTO         PTSUNNY   64  48  54 N12G18    30.04S
STURGEON BAY   CLOUDY    61  46  59 N15       30.07R
GREEN BAY      CLOUDY    65  48  54 NW10      30.06R
MANITOWOC      CLOUDY    63  48  58 MISG      30.04R
APPLETON       PTSUNNY   63  45  51 N14G20    30.06R
CLINTONVILLE   CLOUDY    63  43  48 NW12      30.07S
OSHKOSH        CLOUDY    64  47  53 N14G22    30.05R
$$

WIZ032>034-041-042-053>061-071800-
SOUTHWEST WISCONSIN

CITY           SKY/WX    TMP DP  RH WIND       PRES   REMARKS
LA CROSSE      CLOUDY    63  45  51 N13       30.12R
SPARTA         CLOUDY    63  45  50 NW10      30.12S
VIROQUA        CLOUDY    62  48  60 N10G17    30.12R
BOSCOBEL       CLOUDY    67  51  56 N10       30.09R
PRAIRIE DU CHI PTSUNNY   66  47  49 N12G20    30.09S
PLATTEVILLE    MOSUNNY   65  55  70 N10       30.08R
$$

WIZ056-057-062-063-064-067-068-071800-
SOUTH CENTRAL WISCONSIN

CITY           SKY/WX    TMP DP  RH WIND       PRES   REMARKS
REEDSBURG      CLOUDY    63  50  63 N9        30.08R
BARABOO/DELLS  CLOUDY    64  48  57 N7        30.08R
LONE ROCK      PTSUNNY   66  52  60 N12       30.08S
MINERAL POINT  PTSUNNY   64  54  68 N9        30.08S
MADISON        PTSUNNY   65  52  62 N13G18    30.05R
MIDDLETON      MOSUNNY   68  52  57 N12       30.06R
WATERTOWN      PTSUNNY   65  53  64 NE13G20   30.04S
MONROE         CLOUDY    64  54  68 N9        30.05R
JANESVILLE     NOT AVBL
$$

WIZ051-052-058>065-066-070>072-071800-
SOUTHEAST WISCONSIN

CITY           SKY/WX    TMP DP  RH WIND       PRES   REMARKS
MILWAUKEE      PTSUNNY   65  49  56 NE15G23   30.03R
WAUKESHA       PTSUNNY   63  50  63 NW10G17   30.05R
MILWAUKEE/TIMM CLOUDY    64  48  55 W12       30.04R
RACINE         MOSUNNY   66  48  52 NE18G24   30.05R
BURLINGTON     PTSUNNY   64  51  64 N10       30.03R
KENOSHA        SUNNY     66  50  56 NE13G22   30.03R
FOND DU LAC    CLOUDY    66  50  56 N14G21    30.06R
SHEBOYGAN      CLOUDY    65  48  54 N13G18    30.04R
WEST BEND      PTSUNNY   64  46  52 NW12G21   30.04R
JUNEAU         CLOUDY    64  51  62 NW7       30.06S
$$

LSZ147-162-071800-
LAKE SUPERIOR

STATION/POSITION TIME  TEMP    WIND        PRES    WAVE
                       AIR SEA DIR/SP/G            HT/PER
                 (UTC) (F)     (DEG/KT/KT) (MB)    (FT/S)
W MID LAKE BUOY  1650   47 39  260/ 10/ 10 1019.9F   1
DEVILS ISLAND    1700   60     240/  5/  7 1020.6F
PORT WING        1640   61     320/  2/  2 1021.0S
SAXON HARBOR     1600   60      10/  9/ 11 1020.3R
$$

LMZ867-665-643>646-071800-
LAKE MICHIGAN

STATION/POSITION TIME  TEMP    WIND        PRES    WAVE
                       AIR SEA DIR/SP/G            HT/PER
                 (UTC) (F)     (DEG/KT/KT) (MB)    (FT/S)
CHAMBERS ISLAND  1600   60     310/ 13/ 18 1016.9S
N MID LAKE BUOY  1650   55 52  310/ 12/ 14 1016.3R   2/ 4
NORTHPORT PIER   1600   59     330/ 15/ 19 1016.6R
SISTER BAY       1614   61     340/ 18/ 21   N/A
ALGOMA LAKESHORE 1626          360/ 15/ 22   N/A
KEWAUNEE LAKESHO 1700   61     350/ 12/ 18 1016.7R
SHEBOYGAN LAKESH 1700   58      20/ 10/ 11 1017.5R
PORT WASHINGTON  1640   62      40/  9/ 15 1017.6R
ATWATER BUOY     1700   60 59   30/ 14/ 17 1018.2R
MILWAUKEE LAKESH 1700   59      30/ 12/ 14   N/A
KENOSHA   LAKESH 1700   59      20/ 17/ 22 1016.6R
$$

TC  - TEMPERATURE IN CELSIUS
VSB - VISIBILITY IN STATUTE MILES
WCI - WIND CHILL INDEX
HX  - HEAT INDEX




USA.gov is the U.S. government's official web portal to all federal, state and local government web resources and services.